SHT21C EGJB-EGLL

Flight info

Callsign SHT21C
Flight time N/A
Altitude 17000
Route ORIST L982 ROXOG
Aircraft A320/M-SDE3FGHIRWY/LB1

Departure

Time 2026-04-26 18:44
Airport Guernsey Airport (EGJB)

Arrival

Time N/A
Airport London Heathrow Airport (EGLL)
Time Latitude Longitude Altitude Speed Heading
2026-04-26 18:29 49.43260 -2.59620 340 ft 0 kts 177°
2026-04-26 18:37 49.43266 -2.59621 340 ft 2 kts 177°
2026-04-26 18:37 49.43282 -2.59621 339 ft 2 kts 187°
2026-04-26 18:38 49.43299 -2.59619 336 ft 2 kts 190°
2026-04-26 18:38 49.43315 -2.59614 336 ft 2 kts 196°
2026-04-26 18:38 49.43330 -2.59605 335 ft 2 kts 208°
2026-04-26 18:38 49.43344 -2.59592 334 ft 2 kts 224°
2026-04-26 18:39 49.43355 -2.59572 334 ft 2 kts 242°
2026-04-26 18:39 49.43362 -2.59549 335 ft 2 kts 257°
2026-04-26 18:39 49.43365 -2.59527 336 ft 1 kts 267°
2026-04-26 18:39 49.43365 -2.59521 335 ft 0 kts 268°
2026-04-26 18:40 49.43364 -2.59535 335 ft 4 kts 268°
2026-04-26 18:40 49.43362 -2.59626 337 ft 15 kts 268°
2026-04-26 18:41 49.43353 -2.59743 336 ft 7 kts 251°
2026-04-26 18:41 49.43344 -2.59881 340 ft 19 kts 268°
2026-04-26 18:41 49.43338 -2.60102 336 ft 22 kts 267°
2026-04-26 18:41 49.43332 -2.60349 340 ft 25 kts 268°
2026-04-26 18:42 49.43330 -2.60624 340 ft 27 kts 279°
2026-04-26 18:42 49.43364 -2.60914 340 ft 29 kts 279°
2026-04-26 18:42 49.43361 -2.61157 340 ft 3 kts 267°
2026-04-26 18:42 49.43360 -2.61225 340 ft 11 kts 276°
2026-04-26 18:43 49.43406 -2.61332 345 ft 12 kts 316°
2026-04-26 18:43 49.43467 -2.61324 355 ft 11 kts 78°
2026-04-26 18:43 49.43468 -2.61303 346 ft 0 kts 89°
2026-04-26 18:43 49.43469 -2.61217 355 ft 39 kts 88°
2026-04-26 18:44 49.43494 -2.60324 342 ft 122 kts 88°
2026-04-26 18:44 49.43534 -2.58767 584 ft 158 kts 86°
2026-04-26 18:44 49.43578 -2.57119 1553 ft 150 kts 86°
2026-04-26 18:44 49.43624 -2.55466 2358 ft 163 kts 87°
2026-04-26 18:45 49.43677 -2.53623 2883 ft 182 kts 87°
2026-04-26 18:45 49.43738 -2.51568 3160 ft 205 kts 85°
2026-04-26 18:45 49.44276 -2.49458 3581 ft 221 kts 49°
2026-04-26 18:45 49.45571 -2.48022 3948 ft 244 kts 18°
2026-04-26 18:46 49.47275 -2.47591 4489 ft 260 kts
2026-04-26 18:46 49.49076 -2.47074 5361 ft 265 kts 11°
2026-04-26 18:46 49.50881 -2.46377 6249 ft 269 kts 13°
2026-04-26 18:46 49.52692 -2.45627 7081 ft 274 kts 13°
2026-04-26 18:47 49.54557 -2.44856 7888 ft 279 kts 13°
2026-04-26 18:47 49.56436 -2.44104 8683 ft 284 kts 12°
2026-04-26 18:47 49.58391 -2.43354 9486 ft 288 kts 12°
2026-04-26 18:47 49.60361 -2.42619 10281 ft 293 kts 12°
2026-04-26 18:48 49.62376 -2.41874 10618 ft 313 kts 12°
2026-04-26 18:48 49.64571 -2.40988 10955 ft 331 kts 20°
2026-04-26 18:48 49.66567 -2.39135 11529 ft 339 kts 43°
2026-04-26 18:48 49.68213 -2.36540 12196 ft 343 kts 47°
2026-04-26 18:49 49.69879 -2.33838 12894 ft 347 kts 47°
2026-04-26 18:49 49.71555 -2.31114 13586 ft 351 kts 47°
2026-04-26 18:49 49.73237 -2.28377 14249 ft 355 kts 47°
2026-04-26 18:49 49.74951 -2.25590 14849 ft 359 kts 47°
2026-04-26 18:50 49.76097 -2.23728 15249 ft 362 kts 46°
2026-04-26 18:50 49.78433 -2.19927 16049 ft 366 kts 46°
2026-04-26 18:50 49.80185 -2.17069 16638 ft 370 kts 45°
2026-04-26 18:50 49.82142 -2.14459 17114 ft 373 kts 32°
2026-04-26 18:51 49.84355 -2.12310 17227 ft 375 kts 30°
2026-04-26 18:51 49.86612 -2.10153 17249 ft 395 kts 30°
2026-04-26 18:51 49.89023 -2.07862 17246 ft 415 kts 30°
2026-04-26 18:51 49.91548 -2.05460 17246 ft 433 kts 30°
2026-04-26 18:52 49.94156 -2.02977 17255 ft 443 kts 30°
2026-04-26 18:52 49.96759 -2.00498 17250 ft 445 kts 30°
2026-04-26 18:52 49.99407 -1.97969 17252 ft 445 kts 30°
2026-04-26 18:52 50.02038 -1.95439 17253 ft 445 kts 30°
2026-04-26 18:53 50.04673 -1.92897 17257 ft 446 kts 30°
2026-04-26 18:53 50.07322 -1.90342 17256 ft 446 kts 30°
2026-04-26 18:53 50.09936 -1.87821 17256 ft 445 kts 30°
2026-04-26 18:53 50.12579 -1.85273 17259 ft 445 kts 30°
2026-04-26 18:54 50.15195 -1.82750 17260 ft 445 kts 30°
2026-04-26 18:54 50.17836 -1.80196 17262 ft 445 kts 30°
2026-04-26 18:54 50.20475 -1.77640 17264 ft 445 kts 30°
2026-04-26 18:54 50.23088 -1.75108 17261 ft 445 kts 30°
2026-04-26 18:55 50.25740 -1.72531 17259 ft 444 kts 30°
2026-04-26 18:55 50.28326 -1.70015 17259 ft 444 kts 30°
2026-04-26 18:55 50.30962 -1.67453 17254 ft 444 kts 30°
2026-04-26 18:55 50.33594 -1.64891 17256 ft 444 kts 30°
2026-04-26 18:56 50.36212 -1.62339 17252 ft 444 kts 30°
2026-04-26 18:56 50.38819 -1.59783 17253 ft 444 kts 30°
2026-04-26 18:56 50.41427 -1.57220 17253 ft 444 kts 30°
2026-04-26 18:56 50.44047 -1.54650 17255 ft 444 kts 30°
2026-04-26 18:57 50.46672 -1.52079 17259 ft 445 kts 30°
2026-04-26 18:57 50.47569 -1.51202 17262 ft 445 kts 30°
2026-04-26 18:57 50.51933 -1.46916 17264 ft 445 kts 30°
2026-04-26 18:57 50.54552 -1.44328 17265 ft 445 kts 30°
2026-04-26 18:58 50.57174 -1.41737 17265 ft 445 kts 30°
2026-04-26 18:58 50.59771 -1.39172 17270 ft 445 kts 30°
2026-04-26 18:58 50.62441 -1.36534 17273 ft 445 kts 30°
2026-04-26 18:58 50.65025 -1.33975 17276 ft 445 kts 30°
2026-04-26 18:59 50.67644 -1.31378 17282 ft 445 kts 30°
2026-04-26 18:59 50.70272 -1.28766 17278 ft 445 kts 30°
2026-04-26 18:59 50.72894 -1.26153 17283 ft 445 kts 31°
2026-04-26 18:59 50.75519 -1.23533 17285 ft 445 kts 31°
2026-04-26 19:00 50.78132 -1.20925 17284 ft 445 kts 31°
2026-04-26 19:00 50.80747 -1.18314 17280 ft 445 kts 30°
2026-04-26 19:00 50.83363 -1.15704 17273 ft 437 kts 30°
2026-04-26 19:00 50.85863 -1.13204 17173 ft 418 kts 31°
2026-04-26 19:01 50.88273 -1.10790 17041 ft 402 kts 31°
2026-04-26 19:01 50.89820 -1.09237 16834 ft 396 kts 31°
2026-04-26 19:01 50.92126 -1.06919 16342 ft 390 kts 31°
2026-04-26 19:01 50.94417 -1.04613 15797 ft 387 kts 31°
2026-04-26 19:02 50.96675 -1.02337 15131 ft 380 kts 31°
2026-04-26 19:02 50.98896 -1.00095 14160 ft 377 kts 32°
2026-04-26 19:02 51.00980 -0.97563 13383 ft 370 kts 43°
2026-04-26 19:02 51.02156 -0.95566 12892 ft 371 kts 48°
2026-04-26 19:03 51.04407 -0.91539 12224 ft 366 kts 48°
2026-04-26 19:03 51.06092 -0.88535 11799 ft 360 kts 48°
2026-04-26 19:03 51.07748 -0.85588 11362 ft 355 kts 48°
2026-04-26 19:03 51.09390 -0.82670 10935 ft 349 kts 47°
2026-04-26 19:04 51.10943 -0.79908 10714 ft 326 kts 47°
2026-04-26 19:04 51.12401 -0.77308 10572 ft 305 kts 47°
2026-04-26 19:04 51.13796 -0.74811 10433 ft 299 kts 48°
2026-04-26 19:04 51.15159 -0.72367 10311 ft 298 kts 47°
2026-04-26 19:05 51.17896 -0.67463 9687 ft 297 kts 47°
2026-04-26 19:05 51.19283 -0.64977 9298 ft 296 kts 48°
2026-04-26 19:05 51.20643 -0.62535 8924 ft 295 kts 48°
2026-04-26 19:06 51.21548 -0.60904 8660 ft 295 kts 48°
2026-04-26 19:06 51.22901 -0.58461 8330 ft 294 kts 48°
2026-04-26 19:06 51.24233 -0.56058 8265 ft 280 kts 48°
2026-04-26 19:06 51.25469 -0.53835 8116 ft 263 kts 48°
2026-04-26 19:07 51.26754 -0.51741 7584 ft 260 kts 34°
2026-04-26 19:07 51.28362 -0.50656 7407 ft 249 kts
2026-04-26 19:07 51.30049 -0.50809 7295 ft 245 kts 341°
2026-04-26 19:07 51.31526 -0.52135 7272 ft 243 kts 315°
2026-04-26 19:08 51.32569 -0.54213 7272 ft 243 kts 306°
2026-04-26 19:08 51.33625 -0.56341 7269 ft 244 kts 309°